User: anonymous   Login
Location: Caltech
(34.1382°N, 118.1253°W)
Time: 16:54:27
(UTC-07:00)
Language:

UOSAT-12 - Orbit

View from above orbital plane
View from above orbital plane
View from above satellite
View from above satellite

Ground track
Ground track

The orbit data is extracted from the following two-line orbital elements,

1 25693U 99021A   15090.16906181  .00000694  00000-0  10817-3 0  9992
2 25693 064.5546 098.5767 0046218 250.5737 176.8819 14.80375097860399
Epoch (UTC): 31 March 2015 04:03:26
Eccentricity: 0.0046218
inclination: 64.5546°
perigee height: 596 km
apogee height: 660 km
right ascension of ascending node: 98.5767°
argument of perigee: 250.5737°
revolutions per day: 14.80375097
mean anomaly at epoch: 176.8819°
orbit number at epoch: 86039

The dashed part of the orbit path shows where the satellite is in the earth's shadow,  

DLR